{"data":{"norad_id":62059,"intl_designator":"2024-217C","name":"STARLINK-11454 [DTC]","alt_names":[],"object_type":"PAYLOAD","status":"ACTIVE","operator":null,"country":"US","launch_date":"2024-11-24","launch_site_code":"AFWTR","launch_vehicle":null,"mission":null,"orbit_class":"UNKNOWN","rcs_meters":null,"size_class":null,"mass_kg":null,"dimensions":null,"purposes":["comms"],"wikipedia_slug":null,"has_3d_model":false,"image_url":null,"decayed_at":null,"tle_current":{"epoch":"2026-09-21T11:38:32.263296Z","epoch_age_seconds":96361,"freshness":"FRESH","line1":"1 62059U 24217C   26264.48509564  .00147800  00000+0  12024-2 0  9999","line2":"2 62059  53.1566 186.1882 0001179  93.6888 266.4265 15.69725792105925","mean_motion":15.69725792,"eccentricity":0.0001179,"inclination_deg":53.1566,"raan_deg":186.1882,"arg_perigee_deg":93.6888,"mean_anomaly_deg":266.4265,"bstar":0.0012024,"rev_number":10592,"period_min":91.735767312919,"perigee_km":358.88717133126,"apogee_km":360.47594894774,"semimajor_km":6737.8185601395,"source":"CELESTRAK","updated_at":"2026-09-22T09:00:49.491810Z"}}}